Concordia, KS

3:27 AM CST on February 25, 2017 (GMT -0600)
Blosser Municipal

Weather History for KCNK - January, 2013

Change the Weather History Date:

Tuesday, January 15, 2013

  Actual Average Record
Temperature  
Mean Temperature 25 °F 28 °F  
Max Temperature 35 °F 39 °F 68 °F (1943)
Min Temperature 15 °F 19 °F -25 °F (1888)
Degree Days  
Heating Degree Days 40 36  
Month to date heating degree days 574 554  
Since 1 July heating degree days 2601 2731  
Cooling Degree Days 0 0  
Month to date cooling degree days 0 0  
Year to date cooling degree days 0 0  
Moisture  
Dew Point 14 °F    
Average Humidity 61    
Maximum Humidity 74    
Minimum Humidity 47    
Precipitation  
Precipitation 0.00 in 0.02 in 0.96 in (1889)
Month to date precipitation 0.37 0.23  
Year to date precipitation 0.37 0.23  
Snow  
Snow 0.00 in 0.20 in 1.60 in (1984)
Month to date snowfall T 2.5  
Year to date snowfall T 2.5  
Since 1 July snowfall 8.5 9.0  
Snow Depth 0.00 in    
Sea Level Pressure  
Sea Level Pressure 30.28 in    
Wind  
Wind Speed 7 mph (SW)    
Max Wind Speed 14 mph    
Max Gust Speed 17 mph    
Visibility 10 miles    
Events      
T = Trace of Precipitation, MM = Missing Value Source: NWS Daily Summary

Daily Weather History Graph

Daily Weather History Graph

Search for Another Location

Airport or City:

Trip Planner

Search our weather history database for the weather conditions in past years. The results will help you decide how hot, cold, wet, or windy it might be!

Date:

Astronomy

Jan. 15, 2013 Rise Set
Actual Time 7:49 AM CST 5:31 PM CST
Civil Twilight 7:19 AM CST 6:00 PM CST
Nautical Twilight 6:46 AM CST 6:34 PM CST
Astronomical Twilight 6:14 AM CST 7:06 PM CST
Moon 9:56 AM CST (1/15) 10:21 PM CST (1/15)
Length of Visible Light 10h 41m
Length of Day
9h 42m
Waxing Crescent, 19% of the Moon is Illuminated
Jan 15
Waxing Crescent
Jan 18
First Quarter
Jan 26
Full
Feb 3
Last Quarter
Feb 10
New

Hourly Weather History & Observations

Time (CST) Temp. Windchill Dew Point Humidity Pressure Visibility Wind Dir Wind Speed Gust Speed Precip Events Conditions
12:55 AM 19.4 °F - 8.6 °F 63% 30.32 in 10.0 mi Calm Calm - N/A   Scattered Clouds
1:55 AM 19.9 °F - 9.0 °F 62% 30.36 in 10.0 mi Calm Calm - N/A   Scattered Clouds
2:55 AM 18.0 °F - 8.1 °F 65% 30.36 in 10.0 mi Calm Calm - N/A   Clear
3:55 AM 17.1 °F - 9.0 °F 71% 30.35 in 10.0 mi Calm Calm - N/A   Mostly Cloudy
4:55 AM 19.0 °F 13.9 °F 8.1 °F 62% 30.35 in 10.0 mi SSW 3.5 mph - N/A   Clear
5:55 AM 19.0 °F 9.0 °F 10.0 °F 68% 30.36 in 10.0 mi SSW 8.1 mph - N/A   Mostly Cloudy
6:55 AM 18.0 °F 9.8 °F 9.0 °F 68% 30.36 in 10.0 mi SW 5.8 mph - N/A   Mostly Cloudy
7:55 AM 16.0 °F 10.4 °F 8.1 °F 71% 30.37 in 10.0 mi SW 3.5 mph - N/A   Partly Cloudy
8:55 AM 19.9 °F 14.9 °F 12.0 °F 71% 30.35 in 10.0 mi SW 3.5 mph - N/A   Clear
9:55 AM 27.0 °F 21.6 °F 12.0 °F 53% 30.35 in 10.0 mi WSW 4.6 mph - N/A   Clear
10:55 AM 28.9 °F 19.8 °F 16.0 °F 58% 30.33 in 10.0 mi West 10.4 mph - N/A   Clear
11:55 AM 30.9 °F 24.3 °F 18.0 °F 59% 30.30 in 10.0 mi WSW 6.9 mph - N/A   Clear
12:55 PM 33.1 °F 24.9 °F 18.0 °F 54% 30.27 in 10.0 mi West 10.4 mph - N/A   Clear
1:55 PM 33.1 °F 26.1 °F 16.0 °F 50% 30.25 in 10.0 mi WSW 8.1 mph - N/A   Partly Cloudy
2:55 PM 35.1 °F 27.4 °F 17.1 °F 48% 30.25 in 10.0 mi WSW 10.4 mph - N/A   Scattered Clouds
3:55 PM 32.0 °F 25.6 °F 17.1 °F 54% 30.24 in 10.0 mi WSW 6.9 mph - N/A   Scattered Clouds
4:55 PM 32.0 °F 24.2 °F 16.0 °F 52% 30.23 in 10.0 mi SW 9.2 mph - N/A   Partly Cloudy
5:55 PM 27.0 °F 20.5 °F 17.1 °F 66% 30.22 in 10.0 mi SSW 5.8 mph - N/A   Clear
6:55 PM 23.0 °F 14.7 °F 16.0 °F 74% 30.23 in 10.0 mi South 6.9 mph - N/A   Clear
7:55 PM 26.1 °F 15.6 °F 17.1 °F 69% 30.22 in 10.0 mi South 11.5 mph - N/A   Clear
8:55 PM 24.1 °F 12.5 °F 17.1 °F 75% 30.19 in 10.0 mi South 12.7 mph - N/A   Clear
9:55 PM 24.1 °F 13.7 °F 17.1 °F 75% 30.17 in 10.0 mi SSW 10.4 mph - N/A   Clear
10:55 PM 23.0 °F 11.1 °F 16.0 °F 74% 30.16 in 10.0 mi SSW 12.7 mph - N/A   Clear
11:55 PM 24.8 °F 14.0 °F 15.8 °F 69% 30.09 in 10.0 mi SW 11.5 mph - N/A   Clear